When you browse on this site, cookies collect data to enhance your experience and personalize the content and advertising you see.
Visit our Privacy Policy to learn more. By continuing to use the site, you agree to this use of cookies and data.
  • In Hungary
  • List of Countries
  • For 7 days
  • Water Temperature
  • Satellite Maps
  • Weather Map
  • News
  • Weather Widgets
  • user-avatar
    Login

    Hourly Weather Proszkowice

    Today, 19 January, Saturday

    Time Temperature Precipitation Wind Pressure Humidity
    00:00 -3°C° 0 mm 2 mps 751 mmHg 69%
    01:00 -3°C° 0 mm 2 mps 751 mmHg 66%
    02:00 -3°C° 0 mm 2 mps 751 mmHg 66%
    03:00 -3°C° 0 mm 2 mps 751 mmHg 66%
    04:00 -3°C° 0 mm 2 mps 751 mmHg 65%
    05:00 -3°C° 0 mm 2 mps 751 mmHg 66%
    06:00 -3°C° 0 mm 2 mps 751 mmHg 67%
    07:00 -1°C° 0 mm 1 mps 751 mmHg 68%
    08:00 0°C° 0 mm 1 mps 751 mmHg 66%
    09:00 0°C° 0 mm 1 mps 751 mmHg 64%
    10:00 +1°C° 0 mm 1 mps 751 mmHg 62%
    11:00 +1°C° 0 mm 1 mps 751 mmHg 61%
    12:00 +2°C° 0 mm 1 mps 751 mmHg 60%
    13:00 +3°C° 0 mm 1 mps 751 mmHg 59%
    14:00 +2°C° 0 mm 1 mps 750 mmHg 62%
    15:00 +1°C° 0 mm 1 mps 750 mmHg 65%
    16:00 +1°C° 0 mm 1 mps 750 mmHg 68%
    17:00 0°C° 0 mm 1 mps 750 mmHg 69%
    18:00 0°C° 0 mm 1 mps 750 mmHg 70%
    19:00 -3°C° 0 mm 2 mps 749 mmHg 71%
    20:00 -1°C° 0 mm 1 mps 749 mmHg 70%
    21:00 -1°C° 0 mm 1 mps 749 mmHg 69%
    22:00 -1°C° 0 mm 1 mps 749 mmHg 68%
    23:00 -1°C° 0 mm 1 mps 749 mmHg 67%

    Tomorrow, 20 January, Sunday

    Time Temperature Precipitation Wind Pressure Humidity
    00:00 -2°C° 0 mm 1 mps 749 mmHg 66%
    01:00 -2°C° 0 mm 1 mps 749 mmHg 64%
    02:00 -2°C° 0 mm 1 mps 748 mmHg 65%
    03:00 -2°C° 0 mm 1 mps 748 mmHg 65%
    04:00 -2°C° 0 mm 1 mps 748 mmHg 65%
    05:00 -2°C° 0 mm 1 mps 748 mmHg 66%
    06:00 -2°C° 0 mm 1 mps 748 mmHg 66%
    07:00 -3°C° 0 mm 0 mps 748 mmHg 67%
    08:00 -3°C° 0 mm 0 mps 748 mmHg 65%
    09:00 -2°C° 0 mm 0 mps 748 mmHg 62%
    10:00 -1°C° 0 mm 0 mps 749 mmHg 60%
    11:00 -1°C° 0 mm 0 mps 749 mmHg 57%
    12:00 0°C° 0 mm 0 mps 749 mmHg 55%
    13:00 +2°C° 0 mm 1 mps 748 mmHg 53%
    14:00 +1°C° 0 mm 1 mps 748 mmHg 55%
    15:00 0°C° 0 mm 1 mps 748 mmHg 58%
    16:00 0°C° 0 mm 1 mps 749 mmHg 61%
    17:00 -1°C° 0 mm 1 mps 749 mmHg 63%
    18:00 -1°C° 0 mm 1 mps 749 mmHg 65%
    19:00 -2°C° 0 mm 1 mps 750 mmHg 67%
    20:00 -2°C° 0 mm 1 mps 750 mmHg 68%
    21:00 -2°C° 0 mm 1 mps 751 mmHg 69%
    22:00 -3°C° 0 mm 0 mps 751 mmHg 70%
    23:00 -2°C° 0 mm 1 mps 751 mmHg 70%

    Day after tomorrow, 21 January, Monday

    Time Temperature Precipitation Wind Pressure Humidity
    00:00 -2°C° 0 mm 1 mps 752 mmHg 71%
    01:00 -2°C° 0 mm 1 mps 752 mmHg 72%
    02:00 -3°C° 0 mm 1 mps 752 mmHg 72%
    03:00 -3°C° 0 mm 1 mps 752 mmHg 73%
    04:00 -3°C° 0 mm 1 mps 752 mmHg 74%
    05:00 -3°C° 0 mm 1 mps 752 mmHg 74%
    06:00 -3°C° 0 mm 1 mps 753 mmHg 74%
    07:00 -3°C° 0 mm 1 mps 753 mmHg 74%
    08:00 -3°C° 0 mm 1 mps 753 mmHg 70%
    09:00 -2°C° 0 mm 1 mps 753 mmHg 66%
    10:00 -1°C° 0 mm 1 mps 753 mmHg 62%
    11:00 0°C° 0 mm 1 mps 753 mmHg 59%
    12:00 -1°C° 0 mm 0 mps 753 mmHg 55%
    13:00 0°C° 0 mm 0 mps 753 mmHg 51%
    14:00 0°C° 0 mm 0 mps 752 mmHg 53%
    15:00 0°C° 0 mm 1 mps 752 mmHg 55%
    16:00 0°C° 0 mm 1 mps 752 mmHg 57%
    17:00 -1°C° 0 mm 1 mps 752 mmHg 59%
    18:00 -1°C° 0 mm 1 mps 752 mmHg 61%
    19:00 -2°C° 0 mm 1 mps 752 mmHg 63%
    20:00 -2°C° 0 mm 1 mps 751 mmHg 62%
    21:00 -4°C° 0 mm 2 mps 751 mmHg 62%
    22:00 -4°C° 0 mm 2 mps 751 mmHg 62%
    23:00 -4°C° 0 mm 2 mps 750 mmHg 60%

    22 January, Tuesday

    Time Temperature Precipitation Wind Pressure Humidity
    00:00 -4°C° 0 mm 2 mps 750 mmHg 58%
    01:00 -5°C° 0 mm 2 mps 750 mmHg 56%
    02:00 -5°C° 0 mm 2 mps 749 mmHg 55%
    03:00 -5°C° 0 mm 2 mps 749 mmHg 54%
    04:00 -5°C° 0 mm 2 mps 748 mmHg 53%
    05:00 -5°C° 0 mm 2 mps 748 mmHg 54%
    06:00 -5°C° 0 mm 2 mps 747 mmHg 56%
    07:00 -6°C° 0 mm 2 mps 747 mmHg 57%
    08:00 -6°C° 0 mm 3 mps 746 mmHg 54%
    09:00 -5°C° 0 mm 3 mps 746 mmHg 52%
    10:00 -4°C° 0 mm 3 mps 746 mmHg 49%
    11:00 -2°C° 0 mm 3 mps 745 mmHg 47%
    12:00 -1°C° 0 mm 3 mps 744 mmHg 45%
    13:00 -1°C° 0 mm 4 mps 744 mmHg 44%
    14:00 -1°C° 0 mm 3 mps 743 mmHg 47%
    15:00 -1°C° 0 mm 3 mps 742 mmHg 50%
    16:00 -2°C° 0 mm 3 mps 742 mmHg 53%
    17:00 -4°C° 0 mm 3 mps 741 mmHg 56%
    18:00 -4°C° 0 mm 3 mps 741 mmHg 58%
    19:00 -5°C° 0 mm 3 mps 740 mmHg 61%
    20:00 -5°C° 0 mm 3 mps 740 mmHg 63%
    21:00 -5°C° 0 mm 3 mps 739 mmHg 66%
    22:00 -5°C° 0 mm 3 mps 739 mmHg 68%
    23:00 -6°C° 0 mm 3 mps 738 mmHg 71%

    23 January, Wednesday

    Time Temperature Precipitation Wind Pressure Humidity
    00:00 -5°C° 0 mm 2 mps 738 mmHg 73%
    01:00 -5°C° 0 mm 2 mps 737 mmHg 75%
    02:00 -5°C° 0 mm 2 mps 737 mmHg 76%
    03:00 -5°C° 0 mm 2 mps 736 mmHg 78%
    04:00 -5°C° 0 mm 2 mps 735 mmHg 79%
    05:00 -5°C° 0 mm 2 mps 735 mmHg 79%
    06:00 -5°C° 0 mm 2 mps 735 mmHg 79%
    07:00 -5°C° 0 mm 2 mps 734 mmHg 79%
    08:00 -4°C° 0 mm 2 mps 734 mmHg 76%
    09:00 -4°C° 0 mm 2 mps 734 mmHg 74%
    10:00 -3°C° 0 mm 2 mps 734 mmHg 71%
    11:00 -2°C° 0 mm 2 mps 734 mmHg 69%
    12:00 -2°C° 0 mm 2 mps 733 mmHg 67%
    13:00 -1°C° 0 mm 2 mps 733 mmHg 65%
    14:00 -1°C° 0 mm 2 mps 733 mmHg 68%
    15:00 -2°C° 0 mm 2 mps 733 mmHg 71%
    16:00 -2°C° 0 mm 2 mps 732 mmHg 74%
    17:00 -3°C° 0 mm 2 mps 732 mmHg 79%
    18:00 -3°C° 0 mm 2 mps 732 mmHg 83%
    19:00 -4°C° 0 mm 2 mps 732 mmHg 88%
    20:00 -2°C° 0 mm 1 mps 732 mmHg 89%
    21:00 -2°C° 0 mm 1 mps 732 mmHg 91%
    22:00 -2°C° 0 mm 1 mps 733 mmHg 92%
    23:00 -2°C° 0 mm 1 mps 732 mmHg 93%

    24 January, Thursday

    Time Temperature Precipitation Wind Pressure Humidity
    00:00 -2°C° 0 mm 1 mps 732 mmHg 94%
    01:00 -2°C° 0 mm 1 mps 732 mmHg 95%
    02:00 -2°C° 0 mm 1 mps 732 mmHg 95%
    03:00 -2°C° 0 mm 1 mps 732 mmHg 95%
    04:00 -2°C° 0 mm 1 mps 732 mmHg 95%
    05:00 -1°C° 0 mm 1 mps 733 mmHg 95%
    06:00 -1°C° 0 mm 1 mps 733 mmHg 94%
    07:00 -1°C° 0 mm 1 mps 733 mmHg 94%
    08:00 -1°C° 0 mm 1 mps 733 mmHg 93%
    09:00 0°C° 0 mm 1 mps 733 mmHg 92%
    10:00 0°C° 0 mm 1 mps 734 mmHg 91%
    11:00 -2°C° 0 mm 2 mps 734 mmHg 90%
    12:00 -1°C° 0 mm 2 mps 733 mmHg 89%
    13:00 -1°C° 0 mm 2 mps 733 mmHg 89%
    14:00 -1°C° 0 mm 2 mps 733 mmHg 90%
    15:00 -1°C° 0 mm 2 mps 733 mmHg 91%
    16:00 -1°C° 0 mm 2 mps 734 mmHg 92%
    17:00 -1°C° 0.1 mm 2 mps 734 mmHg 93%
    18:00 -1°C° 0.1 mm 2 mps 734 mmHg 95%
    19:00 -2°C° 0.1 mm 2 mps 734 mmHg 96%
    20:00 -1°C° 0.1 mm 2 mps 734 mmHg 96%
    21:00 -1°C° 0.1 mm 2 mps 734 mmHg 97%
    22:00 +1°C° 0.1 mm 1 mps 734 mmHg 97%
    23:00 -1°C° 0.2 mm 2 mps 733 mmHg 97%
    Show more